Regional Weather Roundup
Issued by NWS Charleston, SC

Current Version | Previous Version | Graphics & Text | Print | Product List | Glossary On
Versions: 1 2 3 4 5 6 7 8 9 10 11 12 13 14 15 16 17 18 19 20 21 22 23 24 25 26 27 28 29 30 31 32 33 34 35 36 37 38 39 40 41 42 43 44 45 46 47 48 49 50
000
ASUS42 KCHS 051427
RWRCHS

REGIONAL WEATHER ROUNDUP
NATIONAL WEATHER SERVICE CHARLESTON SC
900 AM EST MON DEC 05 2016

NOTE: "FAIR" INDICATES FEW OR NO CLOUDS BELOW 12,000 FEET WITH NO
SIGNIFICANT WEATHER AND/OR OBSTRUCTIONS TO VISIBILITY.

NOT ALL STATIONS ARE QUALITY CONTROLLED. USE DATA WITH CAUTION...
ESPECIALLY DEWPOINT OBSERVATIONS.

SCZ027-030-031-034>040-042>050-051500-
...SOUTHEAST SOUTH CAROLINA...

CITY           SKY/WX    TMP DP  RH WIND       PRES   REMARKS
N CHARLESTON   LGT RAIN  53  51  93 N7        29.99S FOG
WATERFRONT PRK   N/A     55  55 100 N9        29.98R
MOUNT PLEASANT CLOUDY    54  54 100 N6        30.00R FOG
JOHNS ISLAND   LGT RAIN  55  55 100 N8G14     30.00R
PINOPOLIS        N/A     48  48 100 N8        29.93R
MONCKS CORNER  RAIN      48  48 100 N5        30.01S
SUMMERVILLE    CLOUDY    50  50 100 N3        30.03R
BEAUFORT MCAS  FOG       54  53  97 N8        30.01R VSB 1
BEAUFORT ARPT  LGT RAIN  54  54 100 N8        30.01R
HILTON HEAD IS CLOUDY    61  59  94 N14       30.01R
WALTERBORO     CLOUDY    50 N/A N/A CALM      30.03R HAZE
ALLENDALE      LGT RAIN  48  48 100 N3        30.02R VSB 1/2

...SOUTHERN MIDLANDS AND PEE DEE...

CITY           SKY/WX    TMP DP  RH WIND       PRES   REMARKS
GEORGETOWN     NOT AVBL
KINGSTREE      CLOUDY    46  43  87 N6        30.04R
ORANGEBURG     CLOUDY    47  46  97 VRB5      30.02R
BARNWELL       NOT AVBL
AIKEN          CLOUDY    45  43  93 E3        30.03F
MANNING        NOT AVBL
COLUMBIA       CLOUDY    49  45  86 SE3       30.01S
SUMTER         CLOUDY    46  44  92 CALM      30.00S
FLORENCE       CLOUDY    47  45  93 NE5       30.03R
MYRTLE BEACH   RAIN      52  46  82 NW12      30.03R FOG
N MYRTLE BEACH LGT RAIN  50  50 100 N9        30.00R FOG

$$

GAZ063-065-086>088-099>101-113>116-118-119-134>141-150-051500-
...SOUTHEAST GEORGIA...

CITY           SKY/WX    TMP DP  RH WIND       PRES   REMARKS
SAVANNAH ARPT  DRZL/FOG  59  57  93 N18       29.99R VSB 1/2
HUNTER AAF     CLOUDY    68  68 100 CALM      29.96R FOG
FORT STEWART   CLOUDY    69  66  90 W12       29.95R
STATESBORO     CLOUDY    51  51  99 N7        30.02R
SYLVANIA       CLOUDY   N/A N/A N/A N5        30.04R
CLAXTON        CLOUDY   N/A N/A N/A NW6       30.02R HAZE

...CSRA...CENTRAL AND FAR SOUTHEAST GEORGIA...

CITY           SKY/WX    TMP DP  RH WIND       PRES   REMARKS
THOMSON        CLOUDY    49  49 100 CALM      30.06R
AUGUSTA-BUSH   CLOUDY    49  45  86 CALM      30.02F
AUGUSTA-DANIEL CLOUDY    47  43  86 CALM      30.02F
SWAINSBORO     CLOUDY    50  48  93 CALM      30.02F
VIDALIA        CLOUDY    52  52 100 N6        30.02R FOG
EASTMAN        CLOUDY    52  51  99 N3        30.03S
HAZLEHURST     CLOUDY    53  53 100 N6        30.00R FOG
ALMA           CLOUDY    67  67 100 NW7       29.97R
WAYCROSS       CLOUDY    72  72 100 SW3       29.97R
JESUP          PTSUNNY   70  70 100 NW3       29.98R
BAXLEY         FOG       57  57 100 N9        29.99R VSB 1/4
BRUNSWICK      CLOUDY    72  70  94 SW9       29.97R
SAINT SIMONS   PTSUNNY   68  65  90 S6        29.95R

$$

SCZ027-028-034-036>038-045-046-048>050-GAZ119-141-051500-
...LAKE AND SUPPLEMENTAL COASTAL OBSERVATIONS...

STATION/POSITION TIME  TEMP    WIND        PRES    WAVE   SWELL
                       AIR SEA DIR/SP/G            HT/PER HT/PER/DIR
                 (UTC) (F)     (DEG/KT/KT) (MB)    (FT/S) (FT/S/D)
WINYAH BAY       1330   52     320/  8     1015.0S
LAKE MURRAY      1320   46     130/  1/  5 1015.9
ACE BASIN NERRS  1345   54     350/  3     1015.0R
FORT PULASKI     1400   66 62  250/  7/ 10 1014.6
SAPELO ISLAND    1400   67     200/  9     1014.0

$$

ANZ835-935-AMZ111-154-330-350-352-354-370-450-454-472-051500-
...C-MAN AND BUOY OBSERVATIONS...

STATION/POSITION TIME  TEMP    WIND        PRES    WAVE   SWELL
                       AIR SEA DIR/SP/G            HT/PER HT/PER/DIR
                 (UTC) (F)     (DEG/KT/KT) (MB)    (FT/S) (FT/S/D)
BUOY 41004       1250   74 74  220/ 23/ 29 1012.6    7/ 6
BUOY 41008       1250   67 65  170/ 16/ 19 1013.7    4/ 6   2/ 50/ 9
FOLLY BEACH CMAN 1300   60     340/ 10/ 14 1014.9R
CAPERS NEARSHORE 1308   62 62  350/ 14/ 23 1014.4R
FRIPP NEARSHORE  1408   60 62  360/ 14/ 19 1015.0R


STATION/POSITION TIME  TEMP    WIND        PRES    WAVE   SWELL
                       AIR SEA DIR/SP/G            HT/PER HT/PER/DIR
                 (UTC) (F)     (DEG/KT/KT) (MB)    (FT/S) (FT/S/D)
5E ST. MARYS GA  1400      65                N/A     3/ 5
FRYING PAN BUOY  1330   66 75  290/ 17/ 21 1014.3R
BUOY 41025       1250   71 74  230/ 27/ 33 1011.4    6/ 6   3/210/11
CAPE LOOKOUT NC  1300   60     290/ 10/ 11 1013.1R
BUOY 41002       1250   71 73  200/ 17/ 19 1017.9    5/ 5   2/ 20/ 9
BUOY 41010       NOT AVBL
ST AUGUSTINE FL  1300   67 68  180/  5/  6 1016.8R


$$




USA.gov is the U.S. government's official web portal to all federal, state and local government web resources and services.